Jacksonville NAS, FL

6:52 AM EDT on May 28, 2017 (GMT -0400)
Jacksonville Naval Air Station

Weather History for KNIP - March, 2014

Change the Weather History Date:

Thursday, March 6, 2014

  Actual Average Record
Temperature  
Mean Temperature 52 °F -  
Max Temperature 57 °F 69 °F 87 °F (2003)
Min Temperature 46 °F 51 °F 41 °F (2001)
Degree Days  
Heating Degree Days 14    
Growing Degree Days 2 (Base 50)    
Moisture  
Dew Point 51 °F    
Average Humidity 89    
Maximum Humidity 93    
Minimum Humidity 86    
Precipitation  
Precipitation 1.11 in - - ()
Sea Level Pressure  
Sea Level Pressure 29.93 in    
Wind  
Wind Speed 14 mph (North)    
Max Wind Speed 21 mph    
Max Gust Speed 33 mph    
Visibility 5 miles    
Events Rain    
Averages and records for this station are not official NWS values.
T = Trace of Precipitation, MM = Missing Value Source: NWS Daily Summary

Daily Weather History Graph

Daily Weather History Graph

Search for Another Location

Airport or City:

Trip Planner

Search our weather history database for the weather conditions in past years. The results will help you decide how hot, cold, wet, or windy it might be!

Date:

Astronomy

Mar. 06, 2014 Rise Set
Actual Time 6:47 AM EST 6:29 PM EST
Civil Twilight 6:23 AM EST 6:53 PM EST
Nautical Twilight 5:55 AM EST 7:20 PM EST
Astronomical Twilight 5:27 AM EST 7:48 PM EST
Moon 10:18 AM EST (3/6) No Moon Set
Length of Visible Light 12h 29m
Length of Day
11h 41m
Waxing Crescent, 32% of the Moon is Illuminated
Mar 6
Waxing Crescent
Mar 8
First Quarter
Mar 16
Full
Mar 23
Last Quarter
Mar 30
New

Hourly Weather History & Observations

Time (EST) Temp. Dew Point Humidity Pressure Visibility Wind Dir Wind Speed Gust Speed Precip Events Conditions
12:53 AM 53.1 °F 50.0 °F 89% 30.08 in 8.0 mi NE 13.8 mph - N/A   Overcast
1:53 AM 54.0 °F 51.1 °F 90% 30.06 in 9.0 mi NNE 12.7 mph - N/A   Overcast
2:53 AM 54.0 °F 50.0 °F 86% 30.03 in 8.0 mi NNE 12.7 mph - N/A   Overcast
3:53 AM 54.0 °F 51.1 °F 90% 30.00 in 7.0 mi NNE 15.0 mph - N/A   Overcast
4:53 AM 55.0 °F 52.0 °F 89% 29.98 in 8.0 mi NE 11.5 mph - N/A   Overcast
5:12 AM 55.0 °F 52.0 °F 89% 29.99 in 8.0 mi NNE 11.5 mph - N/A   Overcast
5:53 AM 55.9 °F 53.1 °F 90% 29.99 in 7.0 mi NNE 13.8 mph - N/A   Overcast
6:00 AM 55.9 °F 53.1 °F 90% 30.00 in 6.0 mi NNE 11.5 mph - N/A   Overcast
6:53 AM 57.0 °F 54.0 °F 89% 29.98 in 3.0 mi NE 12.7 mph - N/A   Overcast
7:33 AM 57.0 °F 54.0 °F 89% 29.99 in 2.0 mi NNE 11.5 mph - N/A   Overcast
7:53 AM 57.0 °F 54.0 °F 89% 29.97 in 1.8 mi NNE 15.0 mph - N/A   Overcast
8:53 AM 55.9 °F 53.1 °F 90% 29.97 in 1.5 mi North 16.1 mph - N/A   Overcast
9:53 AM 55.9 °F 54.0 °F 93% 29.95 in 2.0 mi NNE 11.5 mph - 0.00 in Rain Light Rain
10:23 AM 55.9 °F 54.0 °F 93% 29.94 in 0.8 mi North 17.3 mph - 0.21 in Rain Heavy Rain
10:53 AM 57.0 °F 53.1 °F 87% 29.96 in 4.0 mi North 13.8 mph 33.4 mph 0.37 in Rain Light Rain
11:10 AM 55.9 °F 54.0 °F 93% 29.96 in 4.0 mi NNE 15.0 mph 19.6 mph 0.32 in Rain Heavy Rain
11:36 AM 55.9 °F 53.1 °F 90% 29.97 in 2.5 mi NNW 12.7 mph - 0.43 in Rain Heavy Rain
11:51 AM 55.4 °F 51.8 °F 88% 29.97 in 1.8 mi NNW 19.6 mph - 0.52 in Rain Heavy Rain
11:53 AM 55.0 °F 52.0 °F 89% 29.97 in 1.8 mi NNW 18.4 mph - 0.53 in Rain Heavy Rain
12:10 PM 54.0 °F 51.1 °F 90% 29.97 in 1.8 mi North 19.6 mph 24.2 mph 0.11 in Rain Heavy Rain
12:19 PM 55.0 °F 52.0 °F 89% 29.97 in 3.0 mi NNW 20.7 mph - 0.14 in Rain Rain
12:29 PM 55.0 °F 51.1 °F 86% 29.96 in 4.0 mi North 18.4 mph - 0.15 in Rain Light Rain
12:53 PM 54.0 °F 51.1 °F 90% 29.95 in 5.0 mi NNE 13.8 mph - 0.16 in Rain Light Rain
1:03 PM 54.0 °F 51.1 °F 90% 29.96 in 5.0 mi NNE 15.0 mph - 0.03 in Rain Rain
1:53 PM 54.0 °F 51.1 °F 90% 29.86 in 7.0 mi NNE 18.4 mph 24.2 mph 0.05 in Rain Light Rain
2:53 PM 54.0 °F 50.0 °F 86% 29.84 in 7.0 mi NNE 17.3 mph - 0.00 in   Overcast
3:53 PM 54.0 °F 50.0 °F 86% 29.81 in 7.0 mi NNE 18.4 mph - N/A   Overcast
4:53 PM 54.0 °F 50.0 °F 86% 29.82 in 7.0 mi North 17.3 mph - N/A   Overcast
5:53 PM 53.1 °F 48.9 °F 86% 29.82 in 6.0 mi North 18.4 mph - N/A   Overcast
6:53 PM 52.0 °F 48.9 °F 89% 29.83 in 6.0 mi North 13.8 mph - N/A   Overcast
7:53 PM 52.0 °F 48.0 °F 86% 29.83 in 7.0 mi NNE 15.0 mph - 0.00 in   Light Drizzle
8:53 PM 51.1 °F 48.0 °F 89% 29.85 in 7.0 mi North 15.0 mph - 0.00 in   Light Drizzle
9:15 PM 51.1 °F 46.9 °F 86% 29.87 in 5.0 mi NNW 15.0 mph - 0.00 in   Light Drizzle
9:53 PM 50.0 °F 46.9 °F 89% 29.85 in 4.0 mi North 12.7 mph - 0.00 in   Overcast
10:53 PM 48.9 °F 46.0 °F 90% 29.86 in 8.0 mi NW 9.2 mph - 0.00 in   Overcast
11:02 PM 48.0 °F 45.0 °F 89% 29.86 in 10.0 mi NNW 12.7 mph - N/A   Overcast
11:36 PM 46.9 °F 45.0 °F 93% 29.86 in 5.0 mi NNW 10.4 mph - N/A   Overcast
11:53 PM 46.9 °F 44.1 °F 90% 29.84 in 5.0 mi NW 10.4 mph - N/A   Overcast